EW7069 Weather Reports


Display with metric or nautical units.
time (UTC)temp
F
wind
direction
speed
MPH
gust
MPH
rain 1hr
in
rain 24hr
in
rain mn
in
humidity
%
barometer
mb
20260507163003 53 267 8.0 12.0 0.00 0.00 0.00 30 998.3
20260507162002 53 315 9.0 14.0 0.00 0.00 0.00 29 998.3
20260507161003 53 314 8.0 13.0 0.00 0.00 0.00 31 998.2
20260507160003 52 314 8.0 10.0 0.00 0.00 0.00 31 997.9
20260507155003 52 314 9.0 15.0 0.00 0.00 0.00 32 997.9
20260507154003 52 318 9.0 14.0 0.00 0.00 0.00 31 997.8
20260507153003 51 314 8.0 12.0 0.00 0.00 0.00 33 997.9
20260507152003 52 314 6.0 8.0 0.00 0.00 0.00 33 997.8
20260507151003 51 316 8.0 11.0 0.00 0.00 0.00 34 997.8
20260507150002 51 317 8.0 12.0 0.00 0.00 0.00 34 997.6
20260507145003 51 331 8.0 12.0 0.00 0.00 0.00 34 997.5
20260507144003 51 337 9.0 12.0 0.00 0.00 0.00 33 997.5
20260507143003 52 338 7.0 11.0 0.00 0.00 0.00 33 997.6
20260507142003 51 346 7.0 9.0 0.00 0.00 0.00 33 997.5
20260507141003 51 1 7.0 10.0 0.00 0.00 0.00 33 997.6
20260507140003 51 1 5.0 10.0 0.00 0.00 0.00 37 997.6
20260507135003 49 353 5.0 8.0 0.00 0.00 0.00 41 997.6
20260507134004 49 352 6.0 8.0 0.00 0.00 0.00 42 997.8
20260507133003 48 357 4.0 7.0 0.00 0.00 0.00 44 997.7
20260507132003 47 311 5.0 6.0 0.00 0.00 0.00 44 997.9
20260507125004 48 269 6.0 9.0 0.00 0.00 0.00 46 998.1
20260507124003 46 252 5.0 7.0 0.00 0.00 0.00 50 998.4
20260507123003 44 235 4.0 8.0 0.00 0.00 0.00 55 998.3
20260507122004 42 342 5.0 7.0 0.00 0.00 0.00 60 998.5
20260507120004 39 46 4.0 8.0 0.00 0.00 0.00 67 998.9
20260507115003 38 45 3.0 4.0 0.00 0.00 0.00 72 999.1
20260507114004 37 45 3.0 5.0 0.00 0.00 0.00 74 999.5
20260507113004 36 46 2.0 3.0 0.00 0.00 0.00 73 999.6
20260507112003 35 45 2.0 2.0 0.00 0.00 0.00 76 999.2
20260507110004 33 45 1.0 3.0 0.00 0.00 0.00 77 999.5
20260507105003 33 45 1.0 2.0 0.00 0.00 0.00 76 998.9
20260507104004 32 45 0.0 2.0 0.00 0.00 0.00 75 999.0
20260507102003 32 45 0.0 1.0 0.00 0.00 0.00 73 997.5
20260507101003 33 0 0.0 0.0 0.00 0.00 0.00 73 997.4
20260507100004 33 45 0.0 1.0 0.00 0.00 0.00 72 997.3
20260507095003 33 45 0.0 1.0 0.00 0.00 0.00 72 997.2
20260507094004 33 45 0.0 2.0 0.00 0.00 0.00 71 997.3
20260507093003 33 45 0.0 1.0 0.00 0.00 0.00 71 997.6
20260507092003 34 45 0.0 1.0 0.00 0.00 0.00 69 997.5
20260507091004 34 45 0.0 1.0 0.00 0.00 0.00 67 997.4
20260507085003 36 0 0.0 0.0 0.00 0.00 0.00 63 997.9
20260507084004 37 0 0.0 0.0 0.00 0.00 0.00 62 997.5
20260507083003 38 0 0.0 0.0 0.00 0.00 0.00 65 997.7
20260507081003 38 45 0.0 1.0 0.00 0.00 0.00 68 998.1
20260507075003 39 0 0.0 0.0 0.00 0.00 0.00 68 998.0
20260507074002 39 0 0.0 0.0 0.00 0.00 0.00 67 998.1
20260507073002 39 0 0.0 0.0 0.00 0.00 0.00 65 998.2
20260507072002 39 0 0.0 0.0 0.00 0.00 0.00 64 998.0
20260507071002 39 0 0.0 0.0 0.00 0.00 0.00 64 998.1
20260507065002 39 0 0.0 0.0 0.00 0.00 0.00 65 998.4
20260507064002 39 0 0.0 0.0 0.00 0.00 0.00 68 998.1
20260507063002 38 0 0.0 0.0 0.00 0.00 0.00 69 998.3
20260507061002 38 0 0.0 0.0 0.00 0.00 0.00 67 998.7
20260507060002 39 0 0.0 0.0 0.00 0.00 0.00 66 998.5
20260507055002 39 0 0.0 0.0 0.00 0.00 0.00 64 998.4
20260507054002 40 0 0.0 0.0 0.00 0.00 0.00 63 998.6
20260507053003 40 0 0.0 0.0 0.00 0.00 0.00 62 998.8
20260507052003 41 0 0.0 0.0 0.00 0.00 0.00 62 999.0
20260507051002 41 0 0.0 0.0 0.00 0.00 0.00 62 998.7
20260507050003 41 0 0.0 0.0 0.00 0.00 0.00 62 998.7
20260507044002 42 0 0.0 0.0 0.00 0.00 0.00 60 999.2
20260507043003 42 0 0.0 0.0 0.00 0.00 0.00 60 999.0
20260507041002 42 0 0.0 0.0 0.00 0.00 0.00 58 998.9
20260507040002 42 0 0.0 0.0 0.00 0.00 0.00 56 998.9
20260507035002 42 0 0.0 0.0 0.00 0.00 0.00 54 999.1
20260507034002 43 0 0.0 0.0 0.00 0.00 0.00 51 999.2
20260507033003 43 45 0.0 1.0 0.00 0.00 0.00 50 999.3
20260507031002 43 0 0.0 0.0 0.00 0.00 0.00 46 999.6
20260507030002 44 0 0.0 0.0 0.00 0.00 0.00 47 999.7
20260507023003 44 0 0.0 0.0 0.00 0.00 0.00 45 1000.0
20260507022002 45 0 0.0 0.0 0.00 0.00 0.00 44 1000.0
20260507021002 45 0 0.0 0.0 0.00 0.00 0.00 42 1000.0
20260507020002 46 0 0.0 0.0 0.00 0.00 0.00 40 999.9
20260507015002 46 0 0.0 0.0 0.00 0.00 0.00 38 999.8
20260507013002 47 45 0.0 1.0 0.00 0.00 0.00 35 999.5
20260507012003 47 45 0.0 2.0 0.00 0.00 0.00 34 999.4
20260507011003 48 45 1.0 2.0 0.00 0.00 0.00 32 1000.3
20260507010003 48 45 2.0 3.0 0.00 0.00 0.00 29 1000.3
20260507004002 49 46 4.0 8.0 0.00 0.00 0.00 27 1002.6
20260507003003 50 46 5.0 8.0 0.00 0.00 0.00 25 1002.8
20260507002003 50 46 6.0 8.0 0.00 0.00 0.00 26 1003.1
20260507001002 51 45 5.0 7.0 0.00 0.00 0.00 26 1003.1
20260506235002 51 45 4.0 6.0 0.00 0.00 0.00 26 1003.5
20260506234002 51 45 5.0 9.0 0.00 0.00 0.00 26 1003.8
20260506232003 52 45 4.0 10.0 0.00 0.00 0.00 26 1004.1
20260506231002 52 45 5.0 7.0 0.00 0.00 0.00 25 1003.9
20260506230003 52 45 4.0 5.0 0.00 0.00 0.00 26 1004.0
20260506225003 53 45 3.0 5.0 0.00 0.00 0.00 27 1004.1
20260506224003 53 45 3.0 7.0 0.00 0.00 0.00 26 1004.2
20260506222003 53 45 4.0 7.0 0.00 0.00 0.00 25 1004.2
20260506220002 53 45 5.0 9.0 0.00 0.00 0.00 24 1004.4
20260506215003 53 45 3.0 5.0 0.00 0.00 0.00 24 1004.7
20260506214002 54 45 4.0 6.0 0.00 0.00 0.00 24 1004.8
20260506213003 54 45 2.0 4.0 0.00 0.00 0.00 24 1005.0
20260506210002 55 45 4.0 6.0 0.00 0.00 0.00 24 1005.1
20260506205003 56 45 4.0 6.0 0.00 0.00 0.00 25 1005.2
20260506204003 56 46 4.0 8.0 0.00 0.00 0.00 25 1005.2
20260506203003 56 46 6.0 8.0 0.00 0.00 0.00 24 1005.4
20260506202002 56 260 5.0 8.0 0.00 0.00 0.00 24 1005.3
20260506201003 57 313 4.0 5.0 0.00 0.00 0.00 26 1005.1
20260506200003 58 346 4.0 8.0 0.00 0.00 0.00 23 1005.0
20260506195003 59 324 3.0 6.0 0.00 0.00 0.00 25 1004.7
20260506194003 59 299 5.0 11.0 0.00 0.00 0.00 24 1004.7
20260506193002 59 261 5.0 11.0 0.00 0.00 0.00 24 1004.4
20260506192004 57 243 5.0 9.0 0.00 0.00 0.00 24 1004.1
20260506191003 58 225 6.0 9.0 0.00 0.00 0.00 26 1004.0
20260506190004 57 225 5.0 8.0 0.00 0.00 0.00 26 1004.0
20260506185003 56 225 4.0 6.0 0.00 0.00 0.00 27 1004.1
20260506184002 55 225 5.0 8.0 0.00 0.00 0.00 25 1004.0
20260506183003 57 225 5.0 7.0 0.00 0.00 0.00 26 1003.7
20260506182003 56 225 4.0 6.0 0.00 0.00 0.00 26 1003.5
20260506181002 57 225 6.0 10.0 0.00 0.00 0.00 24 1003.4
20260506180004 56 225 6.0 12.0 0.00 0.00 0.00 23 1003.3
20260506175002 58 225 6.0 11.0 0.00 0.00 0.00 23 1003.3
20260506174002 56 225 4.0 8.0 0.00 0.00 0.00 27 1002.9
20260506173003 54 225 5.0 7.0 0.00 0.00 0.00 23 1002.8
20260506172003 54 225 4.0 7.0 0.00 0.00 0.00 25 1002.8
20260506171002 54 225 5.0 8.0 0.00 0.00 0.00 26 1002.5
20260506170003 53 225 5.0 8.0 0.00 0.00 0.00 29 1002.2
20260506165002 53 225 5.0 8.0 0.00 0.00 0.00 29 1001.9